owner,sensor,date,latitude,longitude,vertical_datum,sea_water_practical_salinity,qcFlag 
ENP,ioos.station.NOAA.NDBC:BOBF1:1,2019-09-01T00:00:00Z,25.0270,-80.6810,1.5,40.59,11111222 
ENP,ioos.station.NOAA.NDBC:BOBF1:1,2019-09-01T01:00:00Z,25.0270,-80.6810,1.5,40.55,11111222 
ENP,ioos.station.NOAA.NDBC:BOBF1:1,2019-09-01T02:00:00Z,25.0270,-80.6810,1.5,40.24,11111222 
ENP,ioos.station.NOAA.NDBC:BOBF1:1,2019-09-01T04:00:00Z,25.0270,-80.6810,1.5,40.57,11111222 
ENP,ioos.station.NOAA.NDBC:BOBF1:1,2019-09-06T14:00:00Z,25.0270,-80.6810,1.5,37.06,11111222 
ENP,ioos.station.NOAA.NDBC:BOBF1:1,2019-09-06T15:00:00Z,25.0270,-80.6810,1.5,37.1,11111222 
ENP,ioos.station.NOAA.NDBC:BOBF1:1,2019-09-06T16:00:00Z,25.0270,-80.6810,1.5,37.11,11111222 
ENP,ioos.station.NOAA.NDBC:BOBF1:1,2019-09-06T18:00:00Z,25.0270,-80.6810,1.5,37.38,11111222 
ENP,ioos.station.NOAA.NDBC:BOBF1:1,2019-09-06T19:00:00Z,25.0270,-80.6810,1.5,37.47,11111222 
ENP,ioos.station.NOAA.NDBC:BOBF1:1,2019-09-06T20:00:00Z,25.0270,-80.6810,1.5,37.48,11111222 
ENP,ioos.station.NOAA.NDBC:BOBF1:1,2019-09-06T21:00:00Z,25.0270,-80.6810,1.5,37.15,11111222 
ENP,ioos.station.NOAA.NDBC:BOBF1:1,2019-09-06T22:00:00Z,25.0270,-80.6810,1.5,37.21,11111222 
ENP,ioos.station.NOAA.NDBC:BOBF1:1,2019-09-06T23:00:00Z,25.0270,-80.6810,1.5,37.33,11111222 
ENP,ioos.station.NOAA.NDBC:BOBF1:1,2019-09-07T00:00:00Z,25.0270,-80.6810,1.5,37.38,11111222 
ENP,ioos.station.NOAA.NDBC:BOBF1:1,2019-09-07T02:00:00Z,25.0270,-80.6810,1.5,37.39,11111222 
ENP,ioos.station.NOAA.NDBC:BOBF1:1,2019-09-07T04:00:00Z,25.0270,-80.6810,1.5,36.86,11111222 
ENP,ioos.station.NOAA.NDBC:BOBF1:1,2019-09-07T06:00:00Z,25.0270,-80.6810,1.5,37.26,11111222 
ENP,ioos.station.NOAA.NDBC:BOBF1:1,2019-09-07T07:00:00Z,25.0270,-80.6810,1.5,37.17,11111222 
ENP,ioos.station.NOAA.NDBC:BOBF1:1,2019-09-07T08:00:00Z,25.0270,-80.6810,1.5,36.93,11111222 
ENP,ioos.station.NOAA.NDBC:BOBF1:1,2019-09-07T09:00:00Z,25.0270,-80.6810,1.5,36.53,11111222 
ENP,ioos.station.NOAA.NDBC:BOBF1:1,2019-09-07T10:00:00Z,25.0270,-80.6810,1.5,36.52,11111222 
ENP,ioos.station.NOAA.NDBC:BOBF1:1,2019-09-07T11:00:00Z,25.0270,-80.6810,1.5,36.63,11111222 
ENP,ioos.station.NOAA.NDBC:BOBF1:1,2019-09-07T12:00:00Z,25.0270,-80.6810,1.5,36.65,11111222 
ENP,ioos.station.NOAA.NDBC:BOBF1:1,2019-09-07T13:00:00Z,25.0270,-80.6810,1.5,32.34,11111222 
ENP,ioos.station.NOAA.NDBC:BOBF1:1,2019-09-07T14:00:00Z,25.0270,-80.6810,1.5,36.57,11111222 
ENP,ioos.station.NOAA.NDBC:BOBF1:1,2019-09-07T15:00:00Z,25.0270,-80.6810,1.5,36.83,11111222 
ENP,ioos.station.NOAA.NDBC:BOBF1:1,2019-09-07T16:00:00Z,25.0270,-80.6810,1.5,36.69,11111222 
ENP,ioos.station.NOAA.NDBC:BOBF1:1,2019-09-07T18:00:00Z,25.0270,-80.6810,1.5,36.52,11111222 
ENP,ioos.station.NOAA.NDBC:BOBF1:1,2019-09-07T19:00:00Z,25.0270,-80.6810,1.5,36.62,11111222 
ENP,ioos.station.NOAA.NDBC:BOBF1:1,2019-09-07T20:00:00Z,25.0270,-80.6810,1.5,36.82,11111222 
ENP,ioos.station.NOAA.NDBC:BOBF1:1,2019-09-07T21:00:00Z,25.0270,-80.6810,1.5,36.91,11111222 
ENP,ioos.station.NOAA.NDBC:BOBF1:1,2019-09-07T22:00:00Z,25.0270,-80.6810,1.5,36.93,11111222 
ENP,ioos.station.NOAA.NDBC:BOBF1:1,2019-09-07T23:00:00Z,25.0270,-80.6810,1.5,36.84,11111222 
ENP,ioos.station.NOAA.NDBC:BOBF1:1,2019-09-08T00:00:00Z,25.0270,-80.6810,1.5,36.84,11111222 
ENP,ioos.station.NOAA.NDBC:BOBF1:1,2019-09-08T01:00:00Z,25.0270,-80.6810,1.5,36.98,11111222 
ENP,ioos.station.NOAA.NDBC:BOBF1:1,2019-09-08T02:00:00Z,25.0270,-80.6810,1.5,37.15,11111222 
ENP,ioos.station.NOAA.NDBC:BOBF1:1,2019-09-08T04:00:00Z,25.0270,-80.6810,1.5,37.61,11111222 
ENP,ioos.station.NOAA.NDBC:BOBF1:1,2019-09-08T06:00:00Z,25.0270,-80.6810,1.5,37.87,11111222 
ENP,ioos.station.NOAA.NDBC:BOBF1:1,2019-09-08T07:00:00Z,25.0270,-80.6810,1.5,37.89,11111222 
ENP,ioos.station.NOAA.NDBC:BOBF1:1,2019-09-08T08:00:00Z,25.0270,-80.6810,1.5,37.49,11111222 
ENP,ioos.station.NOAA.NDBC:BOBF1:1,2019-09-08T09:00:00Z,25.0270,-80.6810,1.5,37.43,11111222 
ENP,ioos.station.NOAA.NDBC:BOBF1:1,2019-09-08T10:00:00Z,25.0270,-80.6810,1.5,37.36,11111222 
ENP,ioos.station.NOAA.NDBC:BOBF1:1,2019-09-08T11:00:00Z,25.0270,-80.6810,1.5,37.26,11111222 
ENP,ioos.station.NOAA.NDBC:BOBF1:1,2019-09-08T12:00:00Z,25.0270,-80.6810,1.5,37.5,11111222 
ENP,ioos.station.NOAA.NDBC:BOBF1:1,2019-09-08T13:00:00Z,25.0270,-80.6810,1.5,37.18,11111222 
ENP,ioos.station.NOAA.NDBC:BOBF1:1,2019-09-08T14:00:00Z,25.0270,-80.6810,1.5,37.18,11111222 
ENP,ioos.station.NOAA.NDBC:BOBF1:1,2019-09-08T15:00:00Z,25.0270,-80.6810,1.5,37.3,11111222 
ENP,ioos.station.NOAA.NDBC:BOBF1:1,2019-09-08T16:00:00Z,25.0270,-80.6810,1.5,37.4,11111222 
ENP,ioos.station.NOAA.NDBC:BOBF1:1,2019-09-08T18:00:00Z,25.0270,-80.6810,1.5,37.53,11111222 
ENP,ioos.station.NOAA.NDBC:BOBF1:1,2019-09-08T19:00:00Z,25.0270,-80.6810,1.5,37.65,11111222 
ENP,ioos.station.NOAA.NDBC:BOBF1:1,2019-09-08T20:00:00Z,25.0270,-80.6810,1.5,37.74,11111222 
ENP,ioos.station.NOAA.NDBC:BOBF1:1,2019-09-08T21:00:00Z,25.0270,-80.6810,1.5,37.78,11111222 
ENP,ioos.station.NOAA.NDBC:BOBF1:1,2019-09-08T22:00:00Z,25.0270,-80.6810,1.5,37.83,11111222 
ENP,ioos.station.NOAA.NDBC:BOBF1:1,2019-09-08T23:00:00Z,25.0270,-80.6810,1.5,37.86,11111222 
ENP,ioos.station.NOAA.NDBC:BOBF1:1,2019-09-09T00:00:00Z,25.0270,-80.6810,1.5,37.89,11111222 
ENP,ioos.station.NOAA.NDBC:BOBF1:1,2019-09-09T01:00:00Z,25.0270,-80.6810,1.5,37.91,11111222 
ENP,ioos.station.NOAA.NDBC:BOBF1:1,2019-09-09T02:00:00Z,25.0270,-80.6810,1.5,38.05,11111222 
ENP,ioos.station.NOAA.NDBC:BOBF1:1,2019-09-09T04:00:00Z,25.0270,-80.6810,1.5,38.15,11111222 
ENP,ioos.station.NOAA.NDBC:BOBF1:1,2019-09-09T06:00:00Z,25.0270,-80.6810,1.5,38.13,11111222 
ENP,ioos.station.NOAA.NDBC:BOBF1:1,2019-09-09T07:00:00Z,25.0270,-80.6810,1.5,38.16,11111222 
ENP,ioos.station.NOAA.NDBC:BOBF1:1,2019-09-09T08:00:00Z,25.0270,-80.6810,1.5,38.18,11111222 
ENP,ioos.station.NOAA.NDBC:BOBF1:1,2019-09-09T09:00:00Z,25.0270,-80.6810,1.5,38.18,11111222 
ENP,ioos.station.NOAA.NDBC:BOBF1:1,2019-09-09T10:00:00Z,25.0270,-80.6810,1.5,38.22,11111222 
ENP,ioos.station.NOAA.NDBC:BOBF1:1,2019-09-09T11:00:00Z,25.0270,-80.6810,1.5,38.21,11111222 
ENP,ioos.station.NOAA.NDBC:BOBF1:1,2019-09-09T12:00:00Z,25.0270,-80.6810,1.5,38.2,11111222 
ENP,ioos.station.NOAA.NDBC:BOBF1:1,2019-09-09T13:00:00Z,25.0270,-80.6810,1.5,38.15,11111222 
ENP,ioos.station.NOAA.NDBC:BOBF1:1,2019-09-09T14:00:00Z,25.0270,-80.6810,1.5,38.08,11111222 
ENP,ioos.station.NOAA.NDBC:BOBF1:1,2019-09-09T15:00:00Z,25.0270,-80.6810,1.5,38.1,11111222 
ENP,ioos.station.NOAA.NDBC:BOBF1:1,2019-09-09T16:00:00Z,25.0270,-80.6810,1.5,38.18,11111222 
ENP,ioos.station.NOAA.NDBC:BOBF1:1,2019-09-09T21:00:00Z,25.0270,-80.6810,1.5,38.0,11111222 
ENP,ioos.station.NOAA.NDBC:BOBF1:1,2019-09-09T22:00:00Z,25.0270,-80.6810,1.5,38.03,11111222 
ENP,ioos.station.NOAA.NDBC:BOBF1:1,2019-09-09T23:00:00Z,25.0270,-80.6810,1.5,38.06,11111222 
ENP,ioos.station.NOAA.NDBC:BOBF1:1,2019-09-10T00:00:00Z,25.0270,-80.6810,1.5,38.06,11111222 
ENP,ioos.station.NOAA.NDBC:BOBF1:1,2019-09-10T01:00:00Z,25.0270,-80.6810,1.5,38.12,11111222 
ENP,ioos.station.NOAA.NDBC:BOBF1:1,2019-09-10T02:00:00Z,25.0270,-80.6810,1.5,38.19,11111222 
ENP,ioos.station.NOAA.NDBC:BOBF1:1,2019-09-10T04:00:00Z,25.0270,-80.6810,1.5,38.35,11111222 
ENP,ioos.station.NOAA.NDBC:BOBF1:1,2019-09-10T06:00:00Z,25.0270,-80.6810,1.5,38.09,11111222 
ENP,ioos.station.NOAA.NDBC:BOBF1:1,2019-09-10T07:00:00Z,25.0270,-80.6810,1.5,38.1,11111222 
ENP,ioos.station.NOAA.NDBC:BOBF1:1,2019-09-10T08:00:00Z,25.0270,-80.6810,1.5,38.09,11111222 
ENP,ioos.station.NOAA.NDBC:BOBF1:1,2019-09-10T09:00:00Z,25.0270,-80.6810,1.5,38.11,11111222 
ENP,ioos.station.NOAA.NDBC:BOBF1:1,2019-09-10T10:00:00Z,25.0270,-80.6810,1.5,38.15,11111222 
ENP,ioos.station.NOAA.NDBC:BOBF1:1,2019-09-10T11:00:00Z,25.0270,-80.6810,1.5,38.18,11111222 
ENP,ioos.station.NOAA.NDBC:BOBF1:1,2019-09-10T12:00:00Z,25.0270,-80.6810,1.5,38.41,11111222 
ENP,ioos.station.NOAA.NDBC:BOBF1:1,2019-09-10T13:00:00Z,25.0270,-80.6810,1.5,38.61,11111222 
ENP,ioos.station.NOAA.NDBC:BOBF1:1,2019-09-10T14:00:00Z,25.0270,-80.6810,1.5,39.0,11111222 
ENP,ioos.station.NOAA.NDBC:BOBF1:1,2019-09-10T15:00:00Z,25.0270,-80.6810,1.5,38.91,11111222 
ENP,ioos.station.NOAA.NDBC:BOBF1:1,2019-09-10T16:00:00Z,25.0270,-80.6810,1.5,38.93,11111222 
ENP,ioos.station.NOAA.NDBC:BOBF1:1,2019-09-10T18:00:00Z,25.0270,-80.6810,1.5,38.97,11111222 
ENP,ioos.station.NOAA.NDBC:BOBF1:1,2019-09-10T19:00:00Z,25.0270,-80.6810,1.5,38.64,11111222 
ENP,ioos.station.NOAA.NDBC:BOBF1:1,2019-09-10T20:00:00Z,25.0270,-80.6810,1.5,38.32,11111222 
ENP,ioos.station.NOAA.NDBC:BOBF1:1,2019-09-10T21:00:00Z,25.0270,-80.6810,1.5,38.22,11111222 
ENP,ioos.station.NOAA.NDBC:BOBF1:1,2019-09-10T22:00:00Z,25.0270,-80.6810,1.5,38.25,11111222 
ENP,ioos.station.NOAA.NDBC:BOBF1:1,2019-09-10T23:00:00Z,25.0270,-80.6810,1.5,38.29,11111222 
ENP,ioos.station.NOAA.NDBC:BOBF1:1,2019-09-11T00:00:00Z,25.0270,-80.6810,1.5,38.3,11111222 
ENP,ioos.station.NOAA.NDBC:BOBF1:1,2019-09-11T01:00:00Z,25.0270,-80.6810,1.5,38.29,11111222 
ENP,ioos.station.NOAA.NDBC:BOBF1:1,2019-09-11T02:00:00Z,25.0270,-80.6810,1.5,38.24,11111222 
ENP,ioos.station.NOAA.NDBC:BOBF1:1,2019-09-11T04:00:00Z,25.0270,-80.6810,1.5,38.26,11111222 
ENP,ioos.station.NOAA.NDBC:BOBF1:1,2019-09-11T06:00:00Z,25.0270,-80.6810,1.5,38.45,11111222 
ENP,ioos.station.NOAA.NDBC:BOBF1:1,2019-09-11T07:00:00Z,25.0270,-80.6810,1.5,38.69,11111222 
ENP,ioos.station.NOAA.NDBC:BOBF1:1,2019-09-11T08:00:00Z,25.0270,-80.6810,1.5,38.81,11111222 
ENP,ioos.station.NOAA.NDBC:BOBF1:1,2019-09-11T09:00:00Z,25.0270,-80.6810,1.5,38.78,11111222 
ENP,ioos.station.NOAA.NDBC:BOBF1:1,2019-09-11T10:00:00Z,25.0270,-80.6810,1.5,38.75,11111222 
ENP,ioos.station.NOAA.NDBC:BOBF1:1,2019-09-11T11:00:00Z,25.0270,-80.6810,1.5,38.72,11111222 
ENP,ioos.station.NOAA.NDBC:BOBF1:1,2019-09-11T12:00:00Z,25.0270,-80.6810,1.5,38.33,11111222 
ENP,ioos.station.NOAA.NDBC:BOBF1:1,2019-09-11T13:00:00Z,25.0270,-80.6810,1.5,38.66,11111222 
ENP,ioos.station.NOAA.NDBC:BOBF1:1,2019-09-11T14:00:00Z,25.0270,-80.6810,1.5,38.92,11111222 
ENP,ioos.station.NOAA.NDBC:BOBF1:1,2019-09-11T15:00:00Z,25.0270,-80.6810,1.5,39.08,11111222 
ENP,ioos.station.NOAA.NDBC:BOBF1:1,2019-09-11T16:00:00Z,25.0270,-80.6810,1.5,38.99,11111222 
ENP,ioos.station.NOAA.NDBC:BOBF1:1,2019-09-11T19:00:00Z,25.0270,-80.6810,1.5,39.26,11111222 
ENP,ioos.station.NOAA.NDBC:BOBF1:1,2019-09-11T20:00:00Z,25.0270,-80.6810,1.5,39.3,11111222 
ENP,ioos.station.NOAA.NDBC:BOBF1:1,2019-09-11T21:00:00Z,25.0270,-80.6810,1.5,39.18,11111222 
ENP,ioos.station.NOAA.NDBC:BOBF1:1,2019-09-11T22:00:00Z,25.0270,-80.6810,1.5,39.08,11111222 
ENP,ioos.station.NOAA.NDBC:BOBF1:1,2019-09-11T23:00:00Z,25.0270,-80.6810,1.5,38.9,11111222 
ENP,ioos.station.NOAA.NDBC:BOBF1:1,2019-09-12T00:00:00Z,25.0270,-80.6810,1.5,38.7,11111222 
ENP,ioos.station.NOAA.NDBC:BOBF1:1,2019-09-12T01:00:00Z,25.0270,-80.6810,1.5,38.54,11111222 
ENP,ioos.station.NOAA.NDBC:BOBF1:1,2019-09-12T02:00:00Z,25.0270,-80.6810,1.5,38.48,11111222 
ENP,ioos.station.NOAA.NDBC:BOBF1:1,2019-09-12T04:00:00Z,25.0270,-80.6810,1.5,38.72,11111222 
ENP,ioos.station.NOAA.NDBC:BOBF1:1,2019-09-12T06:00:00Z,25.0270,-80.6810,1.5,39.44,11111222 
ENP,ioos.station.NOAA.NDBC:BOBF1:1,2019-09-12T07:00:00Z,25.0270,-80.6810,1.5,39.13,11111222 
ENP,ioos.station.NOAA.NDBC:BOBF1:1,2019-09-12T08:00:00Z,25.0270,-80.6810,1.5,39.5,11111222 
ENP,ioos.station.NOAA.NDBC:BOBF1:1,2019-09-12T09:00:00Z,25.0270,-80.6810,1.5,39.51,11111222 
ENP,ioos.station.NOAA.NDBC:BOBF1:1,2019-09-12T10:00:00Z,25.0270,-80.6810,1.5,39.46,11111222 
ENP,ioos.station.NOAA.NDBC:BOBF1:1,2019-09-12T11:00:00Z,25.0270,-80.6810,1.5,39.46,11111222 
ENP,ioos.station.NOAA.NDBC:BOBF1:1,2019-09-12T12:00:00Z,25.0270,-80.6810,1.5,39.84,11111222 
ENP,ioos.station.NOAA.NDBC:BOBF1:1,2019-09-12T13:00:00Z,25.0270,-80.6810,1.5,39.76,11111222 
ENP,ioos.station.NOAA.NDBC:BOBF1:1,2019-09-12T14:00:00Z,25.0270,-80.6810,1.5,39.72,11111222 
ENP,ioos.station.NOAA.NDBC:BOBF1:1,2019-09-12T15:00:00Z,25.0270,-80.6810,1.5,39.83,11111222 
ENP,ioos.station.NOAA.NDBC:BOBF1:1,2019-09-13T19:00:00Z,25.0270,-80.6810,1.5,40.51,11111222 
ENP,ioos.station.NOAA.NDBC:BOBF1:1,2019-09-13T20:00:00Z,25.0270,-80.6810,1.5,40.44,11111222 
ENP,ioos.station.NOAA.NDBC:BOBF1:1,2019-09-13T21:00:00Z,25.0270,-80.6810,1.5,39.91,11111222 
ENP,ioos.station.NOAA.NDBC:BOBF1:1,2019-09-13T22:00:00Z,25.0270,-80.6810,1.5,39.63,11111222 
ENP,ioos.station.NOAA.NDBC:BOBF1:1,2019-09-13T23:00:00Z,25.0270,-80.6810,1.5,39.73,11111222 
ENP,ioos.station.NOAA.NDBC:BOBF1:1,2019-09-14T00:00:00Z,25.0270,-80.6810,1.5,40.11,11111222 
ENP,ioos.station.NOAA.NDBC:BOBF1:1,2019-09-14T02:00:00Z,25.0270,-80.6810,1.5,40.07,11111222 
ENP,ioos.station.NOAA.NDBC:BOBF1:1,2019-09-14T04:00:00Z,25.0270,-80.6810,1.5,40.94,11111222 
ENP,ioos.station.NOAA.NDBC:BOBF1:1,2019-09-14T05:00:00Z,25.0270,-80.6810,1.5,41.32,11111222 
ENP,ioos.station.NOAA.NDBC:BOBF1:1,2019-09-14T06:00:00Z,25.0270,-80.6810,1.5,41.52,11111222 
ENP,ioos.station.NOAA.NDBC:BOBF1:1,2019-09-14T07:00:00Z,25.0270,-80.6810,1.5,41.56,11111222 
ENP,ioos.station.NOAA.NDBC:BOBF1:1,2019-09-14T08:00:00Z,25.0270,-80.6810,1.5,41.41,11111222 
ENP,ioos.station.NOAA.NDBC:BOBF1:1,2019-09-14T09:00:00Z,25.0270,-80.6810,1.5,41.17,11111222 
ENP,ioos.station.NOAA.NDBC:BOBF1:1,2019-09-14T10:00:00Z,25.0270,-80.6810,1.5,41.23,11111222 
ENP,ioos.station.NOAA.NDBC:BOBF1:1,2019-09-14T11:00:00Z,25.0270,-80.6810,1.5,41.26,11111222 
ENP,ioos.station.NOAA.NDBC:BOBF1:1,2019-09-14T12:00:00Z,25.0270,-80.6810,1.5,41.23,11111222 
ENP,ioos.station.NOAA.NDBC:BOBF1:1,2019-09-14T13:00:00Z,25.0270,-80.6810,1.5,41.3,11111222 
ENP,ioos.station.NOAA.NDBC:BOBF1:1,2019-09-14T14:00:00Z,25.0270,-80.6810,1.5,41.28,11111222 
ENP,ioos.station.NOAA.NDBC:BOBF1:1,2019-09-14T15:00:00Z,25.0270,-80.6810,1.5,41.55,11111222 
ENP,ioos.station.NOAA.NDBC:BOBF1:1,2019-09-14T16:00:00Z,25.0270,-80.6810,1.5,41.52,11111222 
ENP,ioos.station.NOAA.NDBC:BOBF1:1,2019-09-14T17:00:00Z,25.0270,-80.6810,1.5,41.48,11111222 
ENP,ioos.station.NOAA.NDBC:BOBF1:1,2019-09-14T18:00:00Z,25.0270,-80.6810,1.5,41.42,11111222 
ENP,ioos.station.NOAA.NDBC:BOBF1:1,2019-09-14T19:00:00Z,25.0270,-80.6810,1.5,41.38,11111222 
ENP,ioos.station.NOAA.NDBC:BOBF1:1,2019-09-14T20:00:00Z,25.0270,-80.6810,1.5,41.2,11111222 
ENP,ioos.station.NOAA.NDBC:BOBF1:1,2019-09-14T21:00:00Z,25.0270,-80.6810,1.5,41.36,11111222 
ENP,ioos.station.NOAA.NDBC:BOBF1:1,2019-09-14T22:00:00Z,25.0270,-80.6810,1.5,41.38,11111222 
ENP,ioos.station.NOAA.NDBC:BOBF1:1,2019-09-14T23:00:00Z,25.0270,-80.6810,1.5,41.36,11111222 
ENP,ioos.station.NOAA.NDBC:BOBF1:1,2019-09-15T00:00:00Z,25.0270,-80.6810,1.5,41.36,11111222 
ENP,ioos.station.NOAA.NDBC:BOBF1:1,2019-09-15T02:00:00Z,25.0270,-80.6810,1.5,41.2,11111222 
ENP,ioos.station.NOAA.NDBC:BOBF1:1,2019-09-15T04:00:00Z,25.0270,-80.6810,1.5,41.32,11111222 
ENP,ioos.station.NOAA.NDBC:BOBF1:1,2019-09-15T05:00:00Z,25.0270,-80.6810,1.5,41.35,11111222 
ENP,ioos.station.NOAA.NDBC:BOBF1:1,2019-09-15T06:00:00Z,25.0270,-80.6810,1.5,41.34,11111222 
ENP,ioos.station.NOAA.NDBC:BOBF1:1,2019-09-15T07:00:00Z,25.0270,-80.6810,1.5,41.38,11111222 
ENP,ioos.station.NOAA.NDBC:BOBF1:1,2019-09-15T08:00:00Z,25.0270,-80.6810,1.5,40.3,11111222 
ENP,ioos.station.NOAA.NDBC:BOBF1:1,2019-09-15T09:00:00Z,25.0270,-80.6810,1.5,39.54,11111222 
ENP,ioos.station.NOAA.NDBC:BOBF1:1,2019-09-15T10:00:00Z,25.0270,-80.6810,1.5,39.22,11111222 
ENP,ioos.station.NOAA.NDBC:BOBF1:1,2019-09-15T11:00:00Z,25.0270,-80.6810,1.5,39.13,11111222 
ENP,ioos.station.NOAA.NDBC:BOBF1:1,2019-09-15T12:00:00Z,25.0270,-80.6810,1.5,35.03,11111222 
ENP,ioos.station.NOAA.NDBC:BOBF1:1,2019-09-15T13:00:00Z,25.0270,-80.6810,1.5,40.96,11111222 
ENP,ioos.station.NOAA.NDBC:BOBF1:1,2019-09-15T14:00:00Z,25.0270,-80.6810,1.5,41.05,11111222 
ENP,ioos.station.NOAA.NDBC:BOBF1:1,2019-09-15T15:00:00Z,25.0270,-80.6810,1.5,41.02,11111222 
ENP,ioos.station.NOAA.NDBC:BOBF1:1,2019-09-15T16:00:00Z,25.0270,-80.6810,1.5,41.01,11111222 
ENP,ioos.station.NOAA.NDBC:BOBF1:1,2019-09-15T17:00:00Z,25.0270,-80.6810,1.5,40.86,11111222 
ENP,ioos.station.NOAA.NDBC:BOBF1:1,2019-09-15T18:00:00Z,25.0270,-80.6810,1.5,40.83,11111222 
ENP,ioos.station.NOAA.NDBC:BOBF1:1,2019-09-15T19:00:00Z,25.0270,-80.6810,1.5,40.7,11111222 
ENP,ioos.station.NOAA.NDBC:BOBF1:1,2019-09-15T20:00:00Z,25.0270,-80.6810,1.5,40.64,11111222 
ENP,ioos.station.NOAA.NDBC:BOBF1:1,2019-09-15T21:00:00Z,25.0270,-80.6810,1.5,40.02,11111222 
ENP,ioos.station.NOAA.NDBC:BOBF1:1,2019-09-15T22:00:00Z,25.0270,-80.6810,1.5,40.8,11111222 
ENP,ioos.station.NOAA.NDBC:BOBF1:1,2019-09-15T23:00:00Z,25.0270,-80.6810,1.5,38.44,11111222 
ENP,ioos.station.NOAA.NDBC:BOBF1:1,2019-09-16T00:00:00Z,25.0270,-80.6810,1.5,41.08,11111222 
ENP,ioos.station.NOAA.NDBC:BOBF1:1,2019-09-16T01:00:00Z,25.0270,-80.6810,1.5,40.56,11111222 
ENP,ioos.station.NOAA.NDBC:BOBF1:1,2019-09-16T02:00:00Z,25.0270,-80.6810,1.5,40.48,11111222 
ENP,ioos.station.NOAA.NDBC:BOBF1:1,2019-09-16T04:00:00Z,25.0270,-80.6810,1.5,40.39,11111222 
ENP,ioos.station.NOAA.NDBC:BOBF1:1,2019-09-16T05:00:00Z,25.0270,-80.6810,1.5,40.33,11111222 
ENP,ioos.station.NOAA.NDBC:BOBF1:1,2019-09-16T06:00:00Z,25.0270,-80.6810,1.5,40.29,11111222 
ENP,ioos.station.NOAA.NDBC:BOBF1:1,2019-09-16T07:00:00Z,25.0270,-80.6810,1.5,40.34,11111222 
ENP,ioos.station.NOAA.NDBC:BOBF1:1,2019-09-16T08:00:00Z,25.0270,-80.6810,1.5,40.55,11111222 
ENP,ioos.station.NOAA.NDBC:BOBF1:1,2019-09-16T09:00:00Z,25.0270,-80.6810,1.5,40.73,11111222 
ENP,ioos.station.NOAA.NDBC:BOBF1:1,2019-09-16T10:00:00Z,25.0270,-80.6810,1.5,40.49,11111222 
ENP,ioos.station.NOAA.NDBC:BOBF1:1,2019-09-16T11:00:00Z,25.0270,-80.6810,1.5,40.08,11111222 
ENP,ioos.station.NOAA.NDBC:BOBF1:1,2019-09-16T12:00:00Z,25.0270,-80.6810,1.5,37.72,11111222 
ENP,ioos.station.NOAA.NDBC:BOBF1:1,2019-09-16T13:00:00Z,25.0270,-80.6810,1.5,39.54,11111222 
ENP,ioos.station.NOAA.NDBC:BOBF1:1,2019-09-16T14:00:00Z,25.0270,-80.6810,1.5,39.5,11111222 
ENP,ioos.station.NOAA.NDBC:BOBF1:1,2019-09-16T15:00:00Z,25.0270,-80.6810,1.5,40.19,11111222 
ENP,ioos.station.NOAA.NDBC:BOBF1:1,2019-09-16T16:00:00Z,25.0270,-80.6810,1.5,40.08,11111222 
ENP,ioos.station.NOAA.NDBC:BOBF1:1,2019-09-16T17:00:00Z,25.0270,-80.6810,1.5,39.76,11111222 
ENP,ioos.station.NOAA.NDBC:BOBF1:1,2019-09-16T18:00:00Z,25.0270,-80.6810,1.5,39.32,11111222 
ENP,ioos.station.NOAA.NDBC:BOBF1:1,2019-09-16T19:00:00Z,25.0270,-80.6810,1.5,39.41,11111222 
ENP,ioos.station.NOAA.NDBC:BOBF1:1,2019-09-16T20:00:00Z,25.0270,-80.6810,1.5,39.48,11111222 
ENP,ioos.station.NOAA.NDBC:BOBF1:1,2019-09-16T21:00:00Z,25.0270,-80.6810,1.5,40.23,11111222 
ENP,ioos.station.NOAA.NDBC:BOBF1:1,2019-09-16T22:00:00Z,25.0270,-80.6810,1.5,39.54,11111222 
ENP,ioos.station.NOAA.NDBC:BOBF1:1,2019-09-16T23:00:00Z,25.0270,-80.6810,1.5,39.44,11111222 
ENP,ioos.station.NOAA.NDBC:BOBF1:1,2019-09-17T00:00:00Z,25.0270,-80.6810,1.5,39.55,11111222 
ENP,ioos.station.NOAA.NDBC:BOBF1:1,2019-09-17T02:00:00Z,25.0270,-80.6810,1.5,39.75,11111222 
ENP,ioos.station.NOAA.NDBC:BOBF1:1,2019-09-17T04:00:00Z,25.0270,-80.6810,1.5,39.67,11111222 
ENP,ioos.station.NOAA.NDBC:BOBF1:1,2019-09-17T05:00:00Z,25.0270,-80.6810,1.5,39.56,11111222 
ENP,ioos.station.NOAA.NDBC:BOBF1:1,2019-09-17T06:00:00Z,25.0270,-80.6810,1.5,39.64,11111222 
ENP,ioos.station.NOAA.NDBC:BOBF1:1,2019-09-17T07:00:00Z,25.0270,-80.6810,1.5,39.66,11111222 
ENP,ioos.station.NOAA.NDBC:BOBF1:1,2019-09-17T08:00:00Z,25.0270,-80.6810,1.5,39.81,11111222 
ENP,ioos.station.NOAA.NDBC:BOBF1:1,2019-09-17T09:00:00Z,25.0270,-80.6810,1.5,39.96,11111222 
ENP,ioos.station.NOAA.NDBC:BOBF1:1,2019-09-17T10:00:00Z,25.0270,-80.6810,1.5,39.89,11111222 
ENP,ioos.station.NOAA.NDBC:BOBF1:1,2019-09-17T11:00:00Z,25.0270,-80.6810,1.5,39.75,11111222 
ENP,ioos.station.NOAA.NDBC:BOBF1:1,2019-09-17T12:00:00Z,25.0270,-80.6810,1.5,39.82,11111222 
ENP,ioos.station.NOAA.NDBC:BOBF1:1,2019-09-17T13:00:00Z,25.0270,-80.6810,1.5,39.85,11111222 
ENP,ioos.station.NOAA.NDBC:BOBF1:1,2019-09-17T14:00:00Z,25.0270,-80.6810,1.5,39.91,11111222 
ENP,ioos.station.NOAA.NDBC:BOBF1:1,2019-09-17T15:00:00Z,25.0270,-80.6810,1.5,39.88,11111222 
ENP,ioos.station.NOAA.NDBC:BOBF1:1,2019-09-17T16:00:00Z,25.0270,-80.6810,1.5,40.14,11111222 
ENP,ioos.station.NOAA.NDBC:BOBF1:1,2019-09-17T17:00:00Z,25.0270,-80.6810,1.5,39.97,11111222 
ENP,ioos.station.NOAA.NDBC:BOBF1:1,2019-09-17T18:00:00Z,25.0270,-80.6810,1.5,39.82,11111222 
ENP,ioos.station.NOAA.NDBC:BOBF1:1,2019-09-17T19:00:00Z,25.0270,-80.6810,1.5,39.78,11111222 
ENP,ioos.station.NOAA.NDBC:BOBF1:1,2019-09-17T20:00:00Z,25.0270,-80.6810,1.5,39.8,11111222 
ENP,ioos.station.NOAA.NDBC:BOBF1:1,2019-09-17T21:00:00Z,25.0270,-80.6810,1.5,40.0,11111222 
ENP,ioos.station.NOAA.NDBC:BOBF1:1,2019-09-17T22:00:00Z,25.0270,-80.6810,1.5,40.05,11111222 
ENP,ioos.station.NOAA.NDBC:BOBF1:1,2019-09-17T23:00:00Z,25.0270,-80.6810,1.5,39.99,11111222 
ENP,ioos.station.NOAA.NDBC:BOBF1:1,2019-09-18T00:00:00Z,25.0270,-80.6810,1.5,39.99,11111222 
ENP,ioos.station.NOAA.NDBC:BOBF1:1,2019-09-18T02:00:00Z,25.0270,-80.6810,1.5,40.1,11111222 
ENP,ioos.station.NOAA.NDBC:BOBF1:1,2019-09-18T04:00:00Z,25.0270,-80.6810,1.5,40.25,11111222 
ENP,ioos.station.NOAA.NDBC:BOBF1:1,2019-09-18T05:00:00Z,25.0270,-80.6810,1.5,40.13,11111222 
ENP,ioos.station.NOAA.NDBC:BOBF1:1,2019-09-18T06:00:00Z,25.0270,-80.6810,1.5,39.96,11111222 
ENP,ioos.station.NOAA.NDBC:BOBF1:1,2019-09-18T07:00:00Z,25.0270,-80.6810,1.5,39.93,11111222 
ENP,ioos.station.NOAA.NDBC:BOBF1:1,2019-09-18T08:00:00Z,25.0270,-80.6810,1.5,39.96,11111222 
ENP,ioos.station.NOAA.NDBC:BOBF1:1,2019-09-18T09:00:00Z,25.0270,-80.6810,1.5,40.21,11111222 
ENP,ioos.station.NOAA.NDBC:BOBF1:1,2019-09-18T10:00:00Z,25.0270,-80.6810,1.5,40.28,11111222 
ENP,ioos.station.NOAA.NDBC:BOBF1:1,2019-09-18T11:00:00Z,25.0270,-80.6810,1.5,40.26,11111222 
ENP,ioos.station.NOAA.NDBC:BOBF1:1,2019-09-18T12:00:00Z,25.0270,-80.6810,1.5,40.33,11111222 
ENP,ioos.station.NOAA.NDBC:BOBF1:1,2019-09-18T13:00:00Z,25.0270,-80.6810,1.5,40.36,11111222 
ENP,ioos.station.NOAA.NDBC:BOBF1:1,2019-09-18T14:00:00Z,25.0270,-80.6810,1.5,40.38,11111222 
ENP,ioos.station.NOAA.NDBC:BOBF1:1,2019-09-18T15:00:00Z,25.0270,-80.6810,1.5,40.35,11111222 
ENP,ioos.station.NOAA.NDBC:BOBF1:1,2019-09-18T16:00:00Z,25.0270,-80.6810,1.5,40.3,11111222 
ENP,ioos.station.NOAA.NDBC:BOBF1:1,2019-09-18T17:00:00Z,25.0270,-80.6810,1.5,40.33,11111222 
ENP,ioos.station.NOAA.NDBC:BOBF1:1,2019-09-18T18:00:00Z,25.0270,-80.6810,1.5,40.36,11111222 
ENP,ioos.station.NOAA.NDBC:BOBF1:1,2019-09-18T19:00:00Z,25.0270,-80.6810,1.5,40.31,11111222 
ENP,ioos.station.NOAA.NDBC:BOBF1:1,2019-09-18T20:00:00Z,25.0270,-80.6810,1.5,40.32,11111222 
ENP,ioos.station.NOAA.NDBC:BOBF1:1,2019-09-18T21:00:00Z,25.0270,-80.6810,1.5,40.36,11111222 
ENP,ioos.station.NOAA.NDBC:BOBF1:1,2019-09-18T22:00:00Z,25.0270,-80.6810,1.5,40.35,11111222 
ENP,ioos.station.NOAA.NDBC:BOBF1:1,2019-09-18T23:00:00Z,25.0270,-80.6810,1.5,40.4,11111222 
ENP,ioos.station.NOAA.NDBC:BOBF1:1,2019-09-19T00:00:00Z,25.0270,-80.6810,1.5,40.44,11111222 
ENP,ioos.station.NOAA.NDBC:BOBF1:1,2019-09-19T02:00:00Z,25.0270,-80.6810,1.5,40.5,11111222 
ENP,ioos.station.NOAA.NDBC:BOBF1:1,2019-09-19T04:00:00Z,25.0270,-80.6810,1.5,40.5,11111222 
ENP,ioos.station.NOAA.NDBC:BOBF1:1,2019-09-19T05:00:00Z,25.0270,-80.6810,1.5,40.55,11111222 
ENP,ioos.station.NOAA.NDBC:BOBF1:1,2019-09-19T06:00:00Z,25.0270,-80.6810,1.5,40.57,11111222 
ENP,ioos.station.NOAA.NDBC:BOBF1:1,2019-09-19T07:00:00Z,25.0270,-80.6810,1.5,40.65,11111222 
ENP,ioos.station.NOAA.NDBC:BOBF1:1,2019-09-19T08:00:00Z,25.0270,-80.6810,1.5,40.66,11111222 
ENP,ioos.station.NOAA.NDBC:BOBF1:1,2019-09-19T09:00:00Z,25.0270,-80.6810,1.5,40.73,11111222 
ENP,ioos.station.NOAA.NDBC:BOBF1:1,2019-09-19T10:00:00Z,25.0270,-80.6810,1.5,40.77,11111222 
ENP,ioos.station.NOAA.NDBC:BOBF1:1,2019-09-19T11:00:00Z,25.0270,-80.6810,1.5,40.79,11111222 
ENP,ioos.station.NOAA.NDBC:BOBF1:1,2019-09-19T12:00:00Z,25.0270,-80.6810,1.5,40.69,11111222 
ENP,ioos.station.NOAA.NDBC:BOBF1:1,2019-09-19T13:00:00Z,25.0270,-80.6810,1.5,40.59,11111222 
ENP,ioos.station.NOAA.NDBC:BOBF1:1,2019-09-19T14:00:00Z,25.0270,-80.6810,1.5,40.58,11111222 
ENP,ioos.station.NOAA.NDBC:BOBF1:1,2019-09-19T15:00:00Z,25.0270,-80.6810,1.5,40.57,11111222 